Weather History for Cheyenne, WY

Change the Weather History Date:

Sunday, January 27, 2013

  Actual Average Record
Temperature  
Mean Temperature 42 °F 28 °F  
Max Temperature 53 °F 39 °F 64 °F (1888)
Min Temperature 30 °F 18 °F -21 °F (1897)
Degree Days  
Heating Degree Days 23 37  
Month to date heating degree days 986 975  
Since 1 July heating degree days 3688 3878  
Cooling Degree Days 0 0  
Month to date cooling degree days 0 0  
Year to date cooling degree days 0 0  
Moisture  
Dew Point 25 °F    
Average Humidity 52    
Maximum Humidity 78    
Minimum Humidity 26    
Precipitation  
Precipitation 0.00 in 0.01 in 0.36 in (1980)
Month to date precipitation 0.12 0.28  
Year to date precipitation 0.12 0.28  
Snow  
Snow 0.00 in 0.20 in 8.80 in (1980)
Month to date snowfall 2.9 5.1  
Since 1 July snowfall 28.3 27.8  
Snow Depth 0.00 in    
Sea Level Pressure  
Sea Level Pressure 29.69 in    
Wind  
Wind Speed 7 mph (West)    
Max Wind Speed 26 mph    
Max Gust Speed 35 mph    
Visibility 10 miles    
Events      
T = Trace of Precipitation, MM = Missing Value Source: NWS Daily Summary

Daily Weather History Graph

Daily Weather History Graph

Search for Another Location

Airport:

Trip Planner

Search our weather history database for the weather conditions in past years. The results will help you decide how hot, cold, wet, or windy it might be!

Date:

Astronomy

Jan. 27, 2013 Rise Set
Actual Time 7:14 AM MST 5:10 PM MST
Civil Twilight 6:44 AM MST 5:39 PM MST
Nautical Twilight 6:11 AM MST 6:12 PM MST
Astronomical Twilight 5:39 AM MST 6:45 PM MST
Moon 6:07 PM MST 7:07 AM MST
Length of Visible Light 10h 54m
Length of Day
9h 55m
Full, 100% of the Moon is Illuminated
Jan 27
Full
Feb 3
Last Quarter
Feb 10
New
Feb 17
First Quarter
Feb 25
Full

Hourly Weather History & Observations

Time (MST) Temp. Windchill Dew Point Humidity Pressure Visibility Wind Dir Wind Speed Gust Speed Precip Events Conditions
12:53 AM 35.1 °F - 24.1 °F 64% 29.67 in 10.0 mi Calm Calm - N/A   Overcast
1:12 AM 35.6 °F 31.7 °F 24.8 °F 65% 29.73 in 10.0 mi West 4.6 mph - N/A   Overcast
1:48 AM 33.8 °F 29.6 °F 24.8 °F 70% 29.73 in 10.0 mi West 4.6 mph - N/A   Overcast
1:53 AM 34.0 °F 31.0 °F 25.0 °F 70% 29.66 in 10.0 mi West 3.5 mph - N/A   Overcast
2:07 AM 35.6 °F - 24.8 °F 65% 29.73 in 10.0 mi Calm Calm - N/A   Overcast
2:53 AM 35.1 °F - 25.0 °F 67% 29.66 in 10.0 mi Calm Calm - N/A   Overcast
3:53 AM 35.1 °F - 25.0 °F 67% 29.66 in 10.0 mi Calm Calm - N/A   Overcast
4:23 AM 35.6 °F 32.8 °F 26.6 °F 70% 29.70 in 10.0 mi South 3.5 mph - N/A   Overcast
4:53 AM 35.1 °F - 26.1 °F 70% 29.66 in 10.0 mi Calm Calm - N/A   Scattered Clouds
5:53 AM 33.1 °F 30.0 °F 26.1 °F 75% 29.69 in 10.0 mi NW 3.5 mph - N/A   Overcast
6:53 AM 33.1 °F 28.7 °F 26.1 °F 75% 29.73 in 10.0 mi West 4.6 mph - N/A   Scattered Clouds
7:53 AM 37.0 °F 30.4 °F 28.9 °F 73% 29.71 in 10.0 mi NW 9.2 mph - N/A   Overcast
8:53 AM 39.0 °F 32.8 °F 28.9 °F 67% 29.73 in 10.0 mi NW 9.2 mph - N/A   Mostly Cloudy
9:53 AM 44.1 °F 40.1 °F 28.9 °F 55% 29.71 in 10.0 mi West 6.9 mph - N/A   Scattered Clouds
10:53 AM 50.0 °F - 25.0 °F 38% 29.68 in 10.0 mi WNW 15.0 mph 20.7 mph N/A   Clear
11:53 AM 50.0 °F - 24.1 °F 36% 29.67 in 10.0 mi West 17.3 mph 24.2 mph N/A   Mostly Cloudy
12:53 PM 51.1 °F - 21.9 °F 32% 29.64 in 10.0 mi West 23.0 mph 29.9 mph N/A   Clear
1:53 PM 52.0 °F - 19.0 °F 27% 29.63 in 10.0 mi West 23.0 mph 28.8 mph N/A   Clear
2:53 PM 51.1 °F - 18.0 °F 27% 29.62 in 10.0 mi WNW 15.0 mph - N/A   Partly Cloudy
3:24 PM 51.8 °F - 21.2 °F 30% 29.70 in 10.0 mi SSW 12.7 mph - N/A   Partly Cloudy
3:53 PM 51.1 °F - 24.1 °F 35% 29.63 in 10.0 mi South 13.8 mph - N/A   Clear
4:53 PM 46.9 °F - 25.0 °F 42% 29.66 in 10.0 mi South 8.1 mph - N/A   Clear
5:53 PM 42.1 °F 38.4 °F 25.0 °F 51% 29.70 in 10.0 mi South 5.8 mph - N/A   Clear
6:53 PM 39.0 °F 34.8 °F 26.1 °F 60% 29.75 in 10.0 mi SW 5.8 mph - N/A   Clear
7:53 PM 37.0 °F - 26.1 °F 65% 29.75 in 10.0 mi Calm Calm - N/A   Clear
8:53 PM 34.0 °F - 25.0 °F 70% 29.73 in 10.0 mi Calm Calm - N/A   Clear
9:53 PM 34.0 °F 31.0 °F 26.1 °F 73% 29.71 in 10.0 mi West 3.5 mph - N/A   Clear
10:53 PM 30.9 °F - 24.1 °F 76% 29.68 in 10.0 mi Calm Calm - N/A   Clear
11:53 PM 32.0 °F - 26.1 °F 79% 29.66 in 10.0 mi Calm Calm - N/A   Clear